« Back
NWS Peachtree City, Ga » Text Product » GA Regional Weather Roundup


Printer-friendly Version
Current Version              Previous Versions:   1  2  3  4  5  6  7  8  9  

Regional Weather Roundup

939
ASUS42 KFFC 280603
RWRGA
WEATHER ROUNDUP FOR GEORGIA
NATIONAL WEATHER SERVICE PEACHTREE CITY GA
200 AM EDT SUN AUG 28 2016

NOTE: "FAIR" INDICATES FEW OR NO CLOUDS BELOW 12,000 FEET WITH NO
SIGNIFICANT WEATHER AND/OR OBSTRUCTIONS TO VISIBILITY.

* = USE WITH CAUTION. THE STATIONS MARKED WITH AN ASTERISK MAY NOT
REPORT WEATHER SUCH AS PRECIPITATION, FOG, OR THUNDER AND ARE NOT
QUALITY CONTROLLED BY NWS.

THE REMARK "TC" DENOTES TEMPERATURE READING IN DEGREES CELSIUS.

GAZ001>058-280700-
NORTH GEORGIA

CITY           SKY/WX    TMP DP  RH WIND       PRES   REMARKS
ATLANTA        CLEAR     78  70  76 E5        30.11F
6HR MIN TEMP:  78; 6HR MAX TEMP:  88;

ATHENS         CLEAR     76  72  87 E7        30.13F
6HR MIN TEMP:  76; 6HR MAX TEMP:  85;

CHAMBLEE       CLEAR     79  70  74 VRB5      30.12F
6HR MIN TEMP:  78; 6HR MAX TEMP:  85;

PEACHTREE CITY PTCLDY    70  69  97 CALM      30.11S
6HR MIN TEMP:  70; 6HR MAX TEMP:  88;

ROME           CLEAR     77  71  82 CALM      30.10S
6HR MIN TEMP:  76; 6HR MAX TEMP:  86;

WEST ATLANTA   CLEAR     74  71  91 NE3       30.11S
6HR MIN TEMP:  74; 6HR MAX TEMP:  87;

GAINESVILLE    CLEAR     75  68  78 E7        30.18S
6HR MIN TEMP:  75; 6HR MAX TEMP:  85;

CARTERSVILLE   CLEAR     78  70  76 VRB5      30.11F
6HR MIN TEMP:  75; 6HR MAX TEMP:  88;



CITY           SKY/WX    TMP DP  RH WIND       PRES   REMARKS
DALTON*        CLEAR     72  72 100 CALM      30.11F
MARIETTA       CLEAR     78  71  78 VRB2      30.12F
CANTON*        CLEAR    N/A N/A N/A CALM      30.16S
BLAIRSVILLE*     N/A    N/A N/A N/A MISG      30.21F FOG
$$

GAZ059>098-102>109-280700-
CENTRAL GEORGIA

CITY           SKY/WX    TMP DP  RH WIND       PRES   REMARKS
AUGUSTA-BUSH   MOCLDY    75  71  87 CALM      30.09F
6HR MIN TEMP:  74; 6HR MAX TEMP:  85;

AUGUSTA-DANIEL CLEAR     80  69  69 E5        30.11F
6HR MIN TEMP:  80; 6HR MAX TEMP:  91;

COLUMBUS       CLEAR     79  61  53 E6        30.06S
6HR MIN TEMP:  78; 6HR MAX TEMP:  90;

MACON          PTCLDY    73  66  78 SE3       30.07F
6HR MIN TEMP:  72; 6HR MAX TEMP:  88;

ROBINS AFB     PTCLDY    73  69  87 CALM      30.06F


CITY           SKY/WX    TMP DP  RH WIND       PRES   REMARKS
LAGRANGE*      CLEAR     72  70  95 CALM      30.09S
MILLEDGEVILLE* PTCLDY    75  70  83 CALM      30.09F
$$

GAZ099>101-110>166-280700-
SOUTH GEORGIA

CITY           SKY/WX    TMP DP  RH WIND       PRES   REMARKS
SAVANNAH       CLEAR     78  73  84 NE6       30.06F
6HR MIN TEMP:  77; 6HR MAX TEMP:  81; 6HR PCP: TRACE;

VALDOSTA       CLEAR     77  76  96 E6        30.02F
6HR MIN TEMP:  77; 6HR MAX TEMP:  85;

ALMA           CLEAR     76  74  93 E6        30.04F
6HR MIN TEMP:  75; 6HR MAX TEMP:  84;

ST SIMONS      PTCLDY    81  75  82 E8        30.03F
6HR MIN TEMP:  81; 6HR MAX TEMP:  82;

FT STEWART     PTCLDY    75  73  94 CALM      30.04F
ALBANY         CLEAR     77  71  82 E7        30.05F
HUNTER AFB     PTCLDY    79  78  98 NE2       30.03F
MOODY AFB      CLEAR     76  73  89 NE6       30.02F
BRUNSWICK      CLEAR     77  77 100 CALM      30.04F


CITY           SKY/WX    TMP DP  RH WIND       PRES   REMARKS
BAINBRIDGE*    CLEAR     79  72  78 CALM      30.03R
MOULTRIE*      CLEAR     77  72  83 CALM      30.04F
VIDALIA*       CLEAR     77  75  94 E7        30.07F
WAYCROSS*        N/A     78  78  99 E6        30.04F
DOUGLAS*       CLEAR     77  72  83 E6        30.06F
$$




USA.gov is the U.S. government's official web portal to all federal, state and local government web resources and services.